This demonstration page uses our WeatherBlox Daily Observations layout. Learn more.

Left ArrowRight Arrow

Hourly Observations for September 17, 2017

Temp ( °F °C ) Dew Point ( °F °C ) Humidity (%) Winds ( mph kmh ) Pressure ( in mb ) Visibility ( mi km ) Precip ( " mm )
12:54 am 00:54 Mostly Cloudy 58 14.4 52 11.1 81 81 N 15 24 30.1 1019 10 16.0934 0 0
1:54 am 01:54 Cloudy 57 13.9 49 9.4 74 74 N 10 17 30.14 1021 10 16.0934 0 0
2:54 am 02:54 Mostly Clear 53 11.7 48 8.9 83 83 N 10 17 30.15 1021 10 16.0934 0 0
3:54 am 03:54 Clear 51 10.6 47 8.3 86 86 N 10 17 30.15 1021 10 16.0934 0 0
4:54 am 04:54 Clear 51 10.6 47 8.3 86 86 N 8 13 30.19 1023 10 16.0934 0 0
5:54 am 05:54 Clear 50 10 46 7.8 86 86 NNW 9 15 30.21 1023 10 16.0934 0 0
6:54 am 06:54 Clear 47 8.3 45 7.2 93 93 N 9 15 30.21 1023 10 16.0934 0 0
7:54 am 07:54 Sunny 49 9.4 46 7.8 90 90 N 7 11 30.23 1024 10 16.0934 0 0
8:54 am 08:54 Sunny 55 12.8 46 7.8 72 72 NE 12 19 30.22 1023 10 16.0934 0 0
9:54 am 09:54 Sunny 59 15 44 6.7 58 58 NNE 16 26 30.22 1023 10 16.0934 0 0
10:54 am 10:54 Sunny 61 16.1 46 7.8 58 58 NNE 14 22 30.21 1023 10 16.0934 0 0
11:54 am 11:54 Sunny 63 17.2 46 7.8 54 54 NE 7 11 30.21 1023 10 16.0934 0 0
12:54 pm 12:54 Sunny 64 17.8 45 7.2 50 50 ENE 10 17 30.2 1023 10 16.0934 0 0
1:54 pm 13:54 Sunny 66 18.9 47 8.3 50 50 ENE 9 15 30.19 1022 10 16.0934 0 0
2:54 pm 14:54 Sunny 69 20.6 47 8.3 45 45 NE 6 9 30.16 1022 10 16.0934 0 0
3:54 pm 15:54 Sunny 71 21.7 47 8.3 42 42 ENE 10 17 30.12 1020 10 16.0934 0 0
4:54 pm 16:54 Partly Cloudy 72 22.2 48 8.9 43 43 ESE 8 13 30.12 1020 10 16.0934 0 0
5:54 pm 17:54 Cloudy 69 20.6 49 9.4 49 49 ESE 7 11 30.11 1020 10 16.0934 0 0
6:25 pm 18:25 Cloudy 68 20 49 9.4 51 51 ESE 8 13 30.09 1019 10 16.0934 0 0
6:54 pm 18:54 Cloudy 68 20 49 9.4 51 51 ESE 8 13 30.09 1019 10 16.0934 0 0
7:06 pm 19:06 Cloudy 68 20 50 10 53 53 ESE 8 13 30.06 1018 10 16.0934 0 0
7:19 pm 19:19 Cloudy 67 19.4 51 10.6 57 57 SE 8 13 30.06 1018 10 16.0934 0 0
7:54 pm 19:54 Cloudy 67 19.4 51 10.6 57 57 SE 10 17 30.08 1019 10 16.0934 0 0
8:54 pm 20:54 Cloudy 66 18.9 52 11.1 61 61 SE 10 17 30.1 1019 10 16.0934 0 0
9:08 pm 21:08 Cloudy 66 18.9 53 11.7 63 63 ESE 12 19 30.06 1018 10 16.0934 0 0
9:54 pm 21:54 Cloudy 66 18.9 54 12.2 65 65 ESE 6 9 30.08 1019 10 16.0934 0 0
10:54 pm 22:54 Cloudy 65 18.3 54 12.2 68 68 SE 5 7 30.07 1018 10 16.0934 0 0
11:54 pm 23:54 Cloudy 66 18.9 55 12.8 68 68 SE 5 7 30.07 1018 10 16.0934 0 0

Powered by AerisWeather